Regional Weather Roundup
Issued by NWS Newport/Morehead, NC

Current Version | Previous Version | Graphics & Text | Print | Product List | Glossary Off
Versions: 1 2 3 4 5 6 7 8 9 10 11 12 13 14 15 16 17 18 19 20 21 22 23 24 25 26 27 28 29 30 31 32 33 34 35 36 37 38 39 40 41 42 43 44 45 46 47 48 49 50

000
ASUS42 KMHX 272125
RWRMHX
WEATHER ROUNDUP FOR EASTERN NORTH CAROLINA
NATIONAL WEATHER SERVICE NEWPORT/MOREHEAD CITY NC
500 PM EDT WED MAY 27 2015

NOTE: "FAIR" INDICATES FEW OR NO CLOUDS BELOW 12,000 FEET
WITH NO SIGNIFICANT WEATHER AND/OR OBSTRUCTIONS TO VISIBILITY

NCZ015>017-031-032-045>047-102-103-272200-
NORTH COAST

CITY           SKY/WX    TMP DP  RH WIND       PRES   REMARKS
EDENTON          N/A     81  69  65 S18       30.20S
ELIZABETH CITY SUNNY     81  68  64 SE10G23   30.21S
KITTY HAWK     CLEAR     78  65  63 S13G20    30.22F
MANTEO         SUNNY     77  65  68 S20       30.23F

$$

NCZ045>047-081-094-103-104-272200-
CENTRAL COAST

CITY           SKY/WX    TMP DP  RH WIND       PRES   REMARKS
FRISCO         SUNNY     78  61  55 S16       30.26S
SWANQUARTER      N/A     79 N/A N/A S15G24    30.18F

$$

NCZ095-097-098-100-101-272200-
SOUTHERN COAST

CITY           SKY/WX    TMP DP  RH WIND       PRES   REMARKS
BEAUFORT       SUNNY     77  67  71 S15       30.24F
CEDAR ISLAND     N/A     79 N/A N/A SE15G22   30.27F
JACKSONVILLE   PTSUNNY   80  67  64 SE15G21   30.22F
PINEY ISLAND   CLEAR    N/A N/A N/A S14G23    30.24F
WILMINGTON     MOSUNNY   80  68  66 S14       30.22F


$$

NCZ011>013-027>030-043-044-078>080-089-090>093-098-272200-
COASTAL PLAIN

CITY           SKY/WX    TMP DP  RH WIND       PRES   REMARKS
AHOSKIE        SUNNY     84  69  61 SE10      30.17F
CLINTON        DRIZZLE   80  72  76 S6        30.19S
ELIZABETHTOWN  CLOUDY    82  69  64 S7        30.20R
GOLDSBORO      MOSUNNY   84  70  61 S7        30.15F
GREENVILLE     PTSUNNY   82  72  69 S9G18     30.19S
HAVELOCK       CLOUDY    79  66  64 S15       30.24F
KENANSVILLE    CLOUDY    80  68  65 SE7       30.20S
KINSTON        PTSUNNY   84  68  58 S13       30.19F
NEW BERN       MOSUNNY   81  65  58 S13       30.23F
RICHLANDS      SUNNY     81  66  61 S12G18    30.21F
ROCKY MOUNT    PTSUNNY   87  68  52 VRB6      30.16F
WASHINGTON     PTSUNNY   82  68  63 S12G20    30.20R
WHITEVILLE     MOSUNNY   82  65  58 S6        30.20S

$$

AMZ130-135-150-152-154-156-158-170-250-252-270-ANZ085-086-088-633-658-670-272200-
MARINE OBSERVATIONS

STATION/POSITION TIME  TEMP    WIND        PRES    WAVE   SWELL
                       AIR SEA DIR/SP/G            HT/PER HT/PER
                 (UTC) (F)     (DEG/KT/KT) (MB)    (FT/S) (FT/S)
CHESAPEAKE LIGHT 2100   69     170/ 29/ 31 1022.0
64 E VA BEACH    2050   68 64  170/ 16/ 17 1023.4    3/ 7   2/ 7
DUCK             2100   74 58  160/ 19/ 24 1021.9
2 E DUCK         2011      65                N/A     2/ 5
OREGON INLET     2100   76 78  170/ 17/ 20 1024.0
13E OREGON INLT  2100      71                N/A     3/ 6
HATTERAS CG      2100   76 75  160/ 13/ 17 1024.0
DIAMOND BUOY     2050   75 77  160/ 16/ 17 1024.6    3/ 7   2/ 7
CAPE LOOKOUT     2100   74     150/ 14/ 16 1023.8
BEAUFORT LAB     2100   76 75  170/ 13/ 16 1023.2
27 SE WRIGHTSVLE 2100      76  170/ 12/ 14   N/A
5 SE WRIGHTSVLE  2008   77 77  170/ 14/ 17 1023.6
225 S CAPE HAT   2050   74 75   90/ 10/ 12 1024.5    4/ 8   3/ 8
41 SE CHARLESTON 2050   78 78  130/  8/ 10 1022.7    3/ 7   3/ 7

$$


USA.gov is the U.S. government's official web portal to all federal, state and local government web resources and services.